Location: Zagreb
(45.8150°N, 15.9819°E)
Time: 17:36:22
(UTC+02:00)

BlueWalker 3 - Visible Passes

Search period start: 25 July 2024 00:00
Search period end: 04 August 2024 00:00
Orbit: 480 x 491 km, 53.2° (Epoch: 24 July)

Date Brightness Start Highest point End Pass type
(mag) Time Alt. Az. Time Alt. Az. Time Alt. Az.
01 Aug 4.5 04:49:45 10° SSE 04:51:33 13° SE 04:53:20 10° E visible
02 Aug 4.5 04:23:47 10° SSE 04:25:15 12° SE 04:26:42 10° ESE visible
03 Aug 4.5 03:57:55 10° SE 03:58:56 11° SE 03:59:56 10° ESE visible
